Kerrville, TX

12:57 PM CDT on June 28, 2017 (GMT -0500)
Kerrville Municipal-Schreiner

Weather History for KERV - May, 2013

Change the Weather History Date:

Thursday, May 9, 2013

  Actual Average (KHDO) Record (KHDO)
Temperature  
Mean Temperature 69 °F -  
Max Temperature 79 °F 84 °F 100 °F (2011)
Min Temperature 58 °F 63 °F 59 °F (2001)
Cooling Degree Days 4    
Growing Degree Days 19 (Base 50)    
Moisture  
Dew Point 66 °F    
Average Humidity 87    
Maximum Humidity 94    
Minimum Humidity 70    
Precipitation  
Precipitation 0.14 in - - ()
Sea Level Pressure  
Sea Level Pressure 29.93 in    
Wind  
Wind Speed 11 mph (SSE)    
Max Wind Speed 17 mph    
Max Gust Speed 28 mph    
Visibility 7 miles    
Events Rain , Thunderstorm    
Averages and records for this station are not official NWS values.
T = Trace of Precipitation, MM = Missing Value Source: NWS Daily Summary

Daily Weather History Graph

Daily Weather History Graph

Search for Another Location

Airport or City:

Trip Planner

Search our weather history database for the weather conditions in past years. The results will help you decide how hot, cold, wet, or windy it might be!

Date:

Astronomy

May. 09, 2013 Rise Set
Actual Time 6:46 AM CDT 8:19 PM CDT
Civil Twilight 6:20 AM CDT 8:44 PM CDT
Nautical Twilight 5:50 AM CDT 9:15 PM CDT
Astronomical Twilight 5:17 AM CDT 9:48 PM CDT
Moon 6:30 AM CDT (5/9) 8:15 PM CDT (5/9)
Length of Visible Light 14h 23m
Length of Day
13h 32m
Waning Crescent, 0% of the Moon is Illuminated
May 9
Waning Crescent
May 9
New
May 17
First Quarter
May 24
Full
May 31
Last Quarter

Hourly Weather History & Observations

Time (CDT) Temp. Dew Point Humidity Pressure Visibility Wind Dir Wind Speed Gust Speed Precip Events Conditions
12:15 AM 68.9 °F 63.5 °F 83% 29.97 in 10.0 mi SE 16.1 mph - N/A   Overcast
12:35 AM 68.9 °F 63.9 °F 84% 29.97 in 10.0 mi SSE 16.1 mph 20.7 mph N/A   Overcast
12:55 AM 68.9 °F 64.4 °F 86% 29.96 in 10.0 mi SSE 12.7 mph 18.4 mph N/A   Overcast
1:35 AM 68.9 °F 64.8 °F 87% 29.96 in 10.0 mi SSE 12.7 mph 18.4 mph N/A   Overcast
1:55 AM 68.7 °F 64.8 °F 87% 29.96 in 10.0 mi SSE 15.0 mph 23.0 mph N/A   Overcast
2:15 AM 68.7 °F 64.8 °F 87% 29.95 in 10.0 mi SSE 13.8 mph - N/A   Overcast
2:35 AM 68.2 °F 64.6 °F 88% 29.94 in 10.0 mi SSE 12.7 mph 17.3 mph N/A   Overcast
3:15 AM 68.9 °F 65.1 °F 88% 29.93 in 10.0 mi SSE 15.0 mph - N/A   Overcast
3:55 AM 68.9 °F 65.1 °F 88% 29.93 in 10.0 mi South 12.7 mph 16.1 mph N/A   Overcast
4:55 AM 68.5 °F 64.6 °F 87% 29.94 in 10.0 mi SSE 10.4 mph - N/A   Overcast
5:35 AM 68.7 °F 64.8 °F 87% 29.94 in 10.0 mi SSE 9.2 mph - N/A   Overcast
5:55 AM 68.5 °F 64.9 °F 88% 29.93 in 7.0 mi SSE 10.4 mph - N/A   Overcast
6:35 AM 67.1 °F 64.4 °F 91% 29.93 in 5.0 mi SSE 11.5 mph - N/A   Overcast
6:55 AM 66.2 °F 63.9 °F 92% 29.94 in 4.0 mi SSE 8.1 mph - N/A   Overcast
8:35 AM 66.2 °F 64.4 °F 94% 29.95 in 1.8 mi SSE 10.4 mph - N/A   Overcast
9:15 AM 67.3 °F 65.5 °F 94% 29.96 in 2.0 mi SSE 8.1 mph - N/A   Overcast
9:35 AM 67.5 °F 65.7 °F 94% 29.95 in 1.5 mi SSE 9.2 mph - N/A   Overcast
9:55 AM 68.9 °F 67.1 °F 94% 29.95 in 1.5 mi SSE 10.4 mph 16.1 mph N/A   Light Drizzle
10:15 AM 68.9 °F 67.1 °F 94% 29.95 in 2.0 mi SE 10.4 mph - N/A   Overcast
10:35 AM 68.9 °F 67.1 °F 94% 29.96 in 2.0 mi South 8.1 mph - N/A   Overcast
10:55 AM 68.9 °F 67.1 °F 94% 29.96 in 1.8 mi South 8.1 mph - N/A   Drizzle
11:15 AM 68.9 °F 67.1 °F 94% 29.96 in 1.8 mi South 8.1 mph - N/A   Drizzle
11:35 AM 68.9 °F 67.1 °F 94% 29.95 in 1.8 mi SSE 8.1 mph - N/A   Light Drizzle
11:55 AM 68.9 °F 67.1 °F 94% 29.95 in 1.5 mi SSE 8.1 mph - N/A   Light Drizzle
12:15 PM 68.9 °F 67.1 °F 94% 29.96 in 1.8 mi SSE 8.1 mph - N/A   Light Drizzle
12:55 PM 70.5 °F 68.7 °F 94% 29.96 in 2.0 mi South 5.8 mph - N/A   Drizzle
1:15 PM 71.6 °F 69.8 °F 94% 29.97 in 1.8 mi Calm Calm - N/A   Drizzle
1:35 PM 71.6 °F 69.8 °F 94% 29.97 in 1.5 mi SSW 3.5 mph - N/A   Heavy Drizzle
1:55 PM 71.6 °F 69.6 °F 93% 29.96 in 1.8 mi South 3.5 mph - 0.01 in Rain Light Rain
2:15 PM 71.6 °F 69.4 °F 93% 29.96 in 5.0 mi South 3.5 mph - N/A   Light Drizzle
2:35 PM 71.6 °F 69.3 °F 92% 29.96 in 7.0 mi SW 5.8 mph - N/A Rain Light Rain
3:15 PM 73.9 °F 69.8 °F 87% 29.93 in 10.0 mi South 4.6 mph - N/A   Mostly Cloudy
3:35 PM 73.9 °F 70.0 °F 87% 29.91 in 10.0 mi SE 6.9 mph - N/A   Mostly Cloudy
3:55 PM 76.1 °F 71.2 °F 85% 29.91 in 10.0 mi SSE 8.1 mph - N/A   Overcast
4:15 PM 76.5 °F 71.6 °F 85% 29.90 in 10.0 mi ESE 6.9 mph - N/A   Mostly Cloudy
4:35 PM 76.5 °F 70.9 °F 83% 29.89 in 10.0 mi SSE 9.2 mph - N/A   Mostly Cloudy
4:55 PM 76.5 °F 70.7 °F 82% 29.88 in 10.0 mi SSE 8.1 mph - N/A   Overcast
5:15 PM 76.5 °F 70.3 °F 81% 29.88 in 10.0 mi SE 6.9 mph - N/A   Mostly Cloudy
5:35 PM 79.0 °F 69.4 °F 72% 29.88 in 10.0 mi SSE 9.2 mph - N/A   Mostly Cloudy
5:55 PM 79.0 °F 68.4 °F 70% 29.86 in 10.0 mi South 8.1 mph - N/A   Scattered Clouds
6:15 PM 79.0 °F 68.7 °F 71% 29.86 in 10.0 mi South 8.1 mph - N/A   Scattered Clouds
6:35 PM 78.3 °F 69.4 °F 74% 29.87 in 7.0 mi SSE 8.1 mph - N/A   Mostly Cloudy
6:55 PM 76.5 °F 68.4 °F 76% 29.86 in 10.0 mi SE 6.9 mph - N/A   Scattered Clouds
7:15 PM 76.5 °F 68.7 °F 77% 29.86 in 7.0 mi SE 6.9 mph - N/A   Clear
7:35 PM 76.5 °F 69.8 °F 80% 29.86 in 7.0 mi SE 6.9 mph - N/A   Clear
7:55 PM 76.5 °F 70.2 °F 81% 29.86 in 7.0 mi ESE 6.9 mph - N/A   Clear
8:15 PM 73.9 °F 68.9 °F 84% 29.86 in 7.0 mi East 5.8 mph - N/A   Scattered Clouds
8:35 PM 73.9 °F 69.8 °F 87% 29.88 in 7.0 mi East 5.8 mph - N/A   Mostly Cloudy
9:15 PM 71.4 °F 67.8 °F 88% 29.91 in 10.0 mi NE 9.2 mph - N/A   Mostly Cloudy
9:35 PM 69.3 °F 64.8 °F 86% 29.96 in 10.0 mi NNE 15.0 mph - N/A   Overcast
9:55 PM 68.9 °F 60.8 °F 75% 29.99 in 10.0 mi NW 17.3 mph 27.6 mph N/A Rain , Thunderstorm Light Thunderstorms and Rain
10:15 PM 62.6 °F 57.2 °F 82% 29.97 in 10.0 mi ENE 13.8 mph 18.4 mph 0.03 in Rain , Thunderstorm Rain
10:35 PM 61.2 °F 57.4 °F 87% 29.96 in 10.0 mi NE 12.7 mph - 0.06 in Rain Rain
10:55 PM 61.0 °F 57.9 °F 90% 29.95 in 5.0 mi SSE 5.8 mph - 0.13 in Rain , Thunderstorm Light Thunderstorms and Rain
11:15 PM 59.5 °F 56.5 °F 90% 29.94 in 10.0 mi Calm Calm - N/A Thunderstorm Thunderstorm
11:35 PM 58.6 °F 56.5 °F 93% 29.94 in 10.0 mi Calm Calm - N/A   Clear